This is the latest recevied weather packets stored in our database for station/object KE8WMS. If no packets are shown the sender has not sent any weather packets the latest 10 day(s).
| Time | Temp. | Humidity | Pressure | Rain* | Wind** | Luminosity | Snow |
|---|---|---|---|---|---|---|---|
| 1778083240 | 10° C | 79% | 1009.1 hPa | 0 mm | - | 806 W/m² | - |
| 1778082939 | 10° C | 80% | 1009.2 hPa | 0 mm | - | 769 W/m² | - |
| 1778081835 | 9.44° C | 83% | 1008.8 hPa | 0 mm | - | 720 W/m² | - |
| 1778081533 | 9.44° C | 83% | 1008.8 hPa | 0 mm | - | 708 W/m² | - |
| 1778081230 | 9.44° C | 86% | 1008.6 hPa | 0 mm | - | 596 W/m² | - |
| 1778080927 | 8.89° C | 86% | 1008.4 hPa | 0 mm | - | 711 W/m² | - |
| 1778080626 | 8.89° C | 86% | 1008.5 hPa | 0 mm | - | 413 W/m² | - |
| 1778080322 | 9.44° C | 86% | 1008.2 hPa | 0 mm | - | 646 W/m² | - |
| 1778080019 | 8.89° C | 86% | 1008.3 hPa | 0 mm | - | 434 W/m² | - |
| 1778079716 | 9.44° C | 86% | 1008 hPa | 0 mm | - | 369 W/m² | - |
| 1778079412 | 10° C | 87% | 1008.2 hPa | 0 mm | - | 508 W/m² | - |
| 1778079109 | 10° C | 87% | 1008.2 hPa | 0 mm | - | 502 W/m² | - |
| 1778078807 | 10° C | 88% | 1008 hPa | 0 mm | - | 176 W/m² | - |
| 1778078503 | 10° C | 88% | 1008.1 hPa | 0 mm | - | 537 W/m² | - |
| 1778078201 | 10° C | 88% | 1007.7 hPa | 0 mm | - | 525 W/m² | - |
| 1778077899 | 10.56° C | 86% | 1007.7 hPa | 0 mm | - | 491 W/m² | - |
| 1778077597 | 10.56° C | 86% | 1007.8 hPa | 0 mm | - | 261 W/m² | - |
| 1778077295 | 10.56° C | 86% | 1007.4 hPa | 0 mm | - | 215 W/m² | - |
| 1778076992 | 10.56° C | 87% | 1007.5 hPa | 0 mm | - | 285 W/m² | - |
| 1778076691 | 10° C | 88% | 1007.4 hPa | 0 mm | - | 230 W/m² | - |
| 1778076388 | 10° C | 91% | 1007.3 hPa | 0 mm | - | 231 W/m² | - |
| 1778076085 | 10° C | 95% | 1007.5 hPa | 0 mm | - | 207 W/m² | - |
| 1778075782 | 8.89° C | 97% | 1007.5 hPa | 0 mm | - | 191 W/m² | - |
| 1778075478 | 8.89° C | 98% | 1007.5 hPa | 0 mm | - | 200 W/m² | - |
| 1778075175 | 8.89° C | 99% | 1007.5 hPa | 0 mm | - | 195 W/m² | - |
* Rain latest hour (hover to see other rain measurements)
** Current wind speed in m/s (hover to see current wind gust speed)